When you browse on this site, cookies collect data to enhance your experience and personalize the content and advertising you see.
Visit our Privacy Policy to learn more. By continuing to use the site, you agree to this use of cookies and data.
  • In Hungary
  • List of Countries
  • For 7 days
  • Water Temperature
  • Satellite Maps
  • Weather Map
  • News
  • Weather Widgets
  • user-avatar
    Login

    Hourly Weather Carballo

    Today, 19 December, Wednesday

    Time Temperature Precipitation Wind Pressure Humidity
    00:00 +8°C° 0.5 mm 7 mps 752 mmHg 91%
    01:00 +8°C° 0.5 mm 7 mps 752 mmHg 91%
    02:00 +8°C° 0.5 mm 7 mps 752 mmHg 91%
    03:00 +8°C° 0.7 mm 7 mps 753 mmHg 92%
    04:00 +8°C° 0.7 mm 7 mps 753 mmHg 92%
    05:00 +8°C° 0.7 mm 7 mps 753 mmHg 92%
    06:00 +8°C° 0.4 mm 7 mps 753 mmHg 93%
    07:00 +8°C° 0.4 mm 6 mps 754 mmHg 94%
    08:00 +8°C° 0.4 mm 5 mps 755 mmHg 94%
    09:00 +9°C° 0.1 mm 5 mps 755 mmHg 91%
    10:00 +9°C° 0.1 mm 5 mps 755 mmHg 87%
    11:00 +10°C° 0.1 mm 5 mps 756 mmHg 84%
    12:00 +10°C° 0.1 mm 5 mps 756 mmHg 82%
    13:00 +10°C° 0.1 mm 5 mps 756 mmHg 81%
    14:00 +10°C° 0.1 mm 5 mps 756 mmHg 80%
    15:00 +9°C° 0.1 mm 5 mps 756 mmHg 85%
    16:00 +9°C° 0.1 mm 5 mps 756 mmHg 90%
    17:00 +8°C° 0.1 mm 4 mps 756 mmHg 94%
    18:00 +8°C° 0.1 mm 5 mps 756 mmHg 95%
    19:00 +8°C° 0.1 mm 5 mps 756 mmHg 95%
    20:00 +9°C° 0.1 mm 5 mps 757 mmHg 95%
    21:00 +9°C° 0.1 mm 5 mps 757 mmHg 96%
    22:00 +9°C° 0.1 mm 5 mps 757 mmHg 96%
    23:00 +9°C° 0.1 mm 5 mps 757 mmHg 96%

    Tomorrow, 20 December, Thursday

    Time Temperature Precipitation Wind Pressure Humidity
    00:00 +9°C° 0.1 mm 5 mps 757 mmHg 96%
    01:00 +9°C° 0.1 mm 5 mps 757 mmHg 97%
    02:00 +10°C° 0.1 mm 4 mps 757 mmHg 97%
    03:00 +10°C° 0.1 mm 4 mps 757 mmHg 97%
    04:00 +11°C° 0.1 mm 4 mps 757 mmHg 97%
    05:00 +10°C° 0.1 mm 5 mps 757 mmHg 97%
    06:00 +10°C° 0.1 mm 5 mps 757 mmHg 97%
    07:00 +10°C° 0.1 mm 5 mps 758 mmHg 96%
    08:00 +10°C° 0.1 mm 5 mps 758 mmHg 96%
    09:00 +12°C° 0.1 mm 5 mps 758 mmHg 95%
    10:00 +11°C° 0.1 mm 6 mps 758 mmHg 93%
    11:00 +13°C° 0.1 mm 6 mps 758 mmHg 92%
    12:00 +12°C° 0 mm 7 mps 758 mmHg 90%
    13:00 +12°C° 0 mm 7 mps 758 mmHg 89%
    14:00 +12°C° 0 mm 7 mps 757 mmHg 87%
    15:00 +12°C° 0 mm 7 mps 758 mmHg 88%
    16:00 +11°C° 0 mm 7 mps 758 mmHg 89%
    17:00 +11°C° 0 mm 7 mps 758 mmHg 90%
    18:00 +11°C° 0.1 mm 8 mps 758 mmHg 90%
    19:00 +11°C° 0.1 mm 8 mps 758 mmHg 90%
    20:00 +11°C° 0.1 mm 8 mps 758 mmHg 90%
    21:00 +11°C° 0.3 mm 8 mps 758 mmHg 90%
    22:00 +11°C° 0.3 mm 8 mps 758 mmHg 91%
    23:00 +11°C° 0.3 mm 8 mps 758 mmHg 92%

    Day after tomorrow, 21 December, Friday

    Time Temperature Precipitation Wind Pressure Humidity
    00:00 +11°C° 0.2 mm 8 mps 758 mmHg 92%
    01:00 +12°C° 0.2 mm 8 mps 758 mmHg 92%
    02:00 +12°C° 0.2 mm 8 mps 758 mmHg 93%
    03:00 +12°C° 0.1 mm 9 mps 757 mmHg 93%
    04:00 +12°C° 0.1 mm 9 mps 757 mmHg 93%
    05:00 +12°C° 0.1 mm 9 mps 757 mmHg 92%
    06:00 +12°C° 0.1 mm 9 mps 758 mmHg 92%
    07:00 +12°C° 0.1 mm 9 mps 758 mmHg 92%
    08:00 +13°C° 0.1 mm 9 mps 758 mmHg 92%
    09:00 +13°C° 0.1 mm 9 mps 758 mmHg 92%
    10:00 +13°C° 0.1 mm 9 mps 758 mmHg 91%
    11:00 +13°C° 0.1 mm 9 mps 759 mmHg 90%
    12:00 +13°C° 0.1 mm 9 mps 759 mmHg 90%
    13:00 +13°C° 0.1 mm 8 mps 758 mmHg 91%
    14:00 +13°C° 0.1 mm 8 mps 758 mmHg 91%
    15:00 +13°C° 0.1 mm 8 mps 758 mmHg 91%
    16:00 +13°C° 0.1 mm 8 mps 759 mmHg 92%
    17:00 +13°C° 0.1 mm 8 mps 759 mmHg 92%
    18:00 +14°C° 0.4 mm 7 mps 759 mmHg 93%
    19:00 +14°C° 0.4 mm 7 mps 759 mmHg 93%
    20:00 +14°C° 0.4 mm 7 mps 760 mmHg 94%
    21:00 +14°C° 0.3 mm 7 mps 760 mmHg 94%
    22:00 +14°C° 0.3 mm 7 mps 760 mmHg 94%
    23:00 +14°C° 0.3 mm 7 mps 760 mmHg 94%

    22 December, Saturday

    Time Temperature Precipitation Wind Pressure Humidity
    00:00 +14°C° 0.1 mm 7 mps 760 mmHg 94%
    01:00 +14°C° 0.1 mm 7 mps 760 mmHg 94%
    02:00 +14°C° 0.1 mm 6 mps 759 mmHg 94%
    03:00 +14°C° 0.1 mm 6 mps 759 mmHg 94%
    04:00 +13°C° 0.1 mm 6 mps 759 mmHg 94%
    05:00 +13°C° 0.1 mm 6 mps 759 mmHg 94%
    06:00 +13°C° 0.1 mm 6 mps 759 mmHg 94%
    07:00 +13°C° 0.1 mm 6 mps 760 mmHg 93%
    08:00 +13°C° 0.1 mm 6 mps 760 mmHg 93%
    09:00 +14°C° 0 mm 6 mps 760 mmHg 90%
    10:00 +14°C° 0 mm 6 mps 760 mmHg 87%
    11:00 +15°C° 0 mm 6 mps 760 mmHg 84%
    12:00 +15°C° 0 mm 6 mps 759 mmHg 83%
    13:00 +15°C° 0 mm 6 mps 759 mmHg 82%
    14:00 +15°C° 0 mm 5 mps 759 mmHg 81%
    15:00 +14°C° 0 mm 5 mps 759 mmHg 85%
    16:00 +13°C° 0 mm 5 mps 759 mmHg 88%
    17:00 +12°C° 0 mm 4 mps 759 mmHg 92%
    18:00 +12°C° 0 mm 4 mps 760 mmHg 92%
    19:00 +12°C° 0 mm 4 mps 760 mmHg 93%
    20:00 +11°C° 0 mm 4 mps 760 mmHg 93%
    21:00 +11°C° 0 mm 4 mps 760 mmHg 93%
    22:00 +11°C° 0 mm 4 mps 760 mmHg 93%
    23:00 +11°C° 0 mm 4 mps 760 mmHg 93%

    23 December, Sunday

    Time Temperature Precipitation Wind Pressure Humidity
    00:00 +11°C° 0 mm 4 mps 759 mmHg 93%
    01:00 +11°C° 0 mm 4 mps 759 mmHg 93%
    02:00 +11°C° 0 mm 3 mps 759 mmHg 93%
    03:00 +11°C° 0 mm 3 mps 759 mmHg 93%
    04:00 +10°C° 0 mm 3 mps 759 mmHg 93%
    05:00 +10°C° 0 mm 3 mps 759 mmHg 93%
    06:00 +10°C° 0 mm 3 mps 759 mmHg 91%
    07:00 +10°C° 0 mm 3 mps 759 mmHg 90%
    08:00 +11°C° 0 mm 3 mps 760 mmHg 89%
    09:00 +13°C° 0 mm 2 mps 760 mmHg 82%
    10:00 +15°C° 0 mm 2 mps 759 mmHg 74%
    11:00 +17°C° 0 mm 2 mps 759 mmHg 67%
    12:00 +17°C° 0 mm 2 mps 759 mmHg 67%
    13:00 +18°C° 0 mm 2 mps 759 mmHg 67%
    14:00 +18°C° 0 mm 2 mps 759 mmHg 67%
    15:00 +16°C° 0 mm 2 mps 759 mmHg 75%
    16:00 +14°C° 0 mm 2 mps 759 mmHg 82%
    17:00 +13°C° 0 mm 2 mps 759 mmHg 90%
    18:00 +12°C° 0 mm 2 mps 760 mmHg 90%
    19:00 +12°C° 0 mm 2 mps 760 mmHg 91%
    20:00 +12°C° 0 mm 2 mps 760 mmHg 91%
    21:00 +10°C° 0 mm 2 mps 760 mmHg 91%
    22:00 +10°C° 0 mm 2 mps 760 mmHg 91%
    23:00 +10°C° 0 mm 2 mps 760 mmHg 90%

    24 December, Monday

    Time Temperature Precipitation Wind Pressure Humidity
    00:00 +10°C° 0 mm 2 mps 760 mmHg 89%
    01:00 +10°C° 0 mm 2 mps 760 mmHg 88%
    02:00 +10°C° 0 mm 2 mps 760 mmHg 86%
    03:00 +10°C° 0 mm 2 mps 760 mmHg 85%
    04:00 +9°C° 0 mm 2 mps 759 mmHg 83%
    05:00 +9°C° 0 mm 2 mps 759 mmHg 81%
    06:00 +9°C° 0 mm 2 mps 759 mmHg 79%
    07:00 +9°C° 0 mm 2 mps 760 mmHg 77%
    08:00 +11°C° 0 mm 1 mps 760 mmHg 76%
    09:00 +13°C° 0 mm 1 mps 760 mmHg 70%
    10:00 +15°C° 0 mm 1 mps 759 mmHg 65%
    11:00 +16°C° 0 mm 1 mps 759 mmHg 59%
    12:00 +18°C° 0 mm 1 mps 759 mmHg 62%
    13:00 +18°C° 0 mm 1 mps 758 mmHg 65%
    14:00 +18°C° 0 mm 1 mps 758 mmHg 68%
    15:00 +15°C° 0 mm 1 mps 757 mmHg 72%
    16:00 +14°C° 0 mm 1 mps 757 mmHg 76%
    17:00 +12°C° 0 mm 2 mps 757 mmHg 80%
    18:00 +12°C° 0 mm 2 mps 757 mmHg 79%
    19:00 +12°C° 0 mm 2 mps 757 mmHg 79%
    20:00 +10°C° 0 mm 2 mps 757 mmHg 78%
    21:00 +10°C° 0 mm 2 mps 757 mmHg 78%
    22:00 +10°C° 0 mm 2 mps 756 mmHg 79%
    23:00 +10°C° 0 mm 2 mps 756 mmHg 79%
    Show more